User: anonymous   Login
Location: Contre
(49.7477°N, 2.0963°E)
Time: 14:38:35
(UTC+00:00)
Language:

In-Cosmos 22 Rocket - Orbit

View from above orbital plane
View from above orbital plane
View from above satellite
View from above satellite

Ground track
Ground track

The orbit data is extracted from the following two-line orbital elements,

1 12646U 81075B   23151.94553944  .00000142  00000-0  64509-4 0  9990
2 12646  81.2254 289.8914 0066455 258.8508 221.7427 14.16028583159273
Epoch (UTC): 31 May 2023 22:41:34
Eccentricity: 0.0066455
inclination: 81.2254°
perigee height: 791 km
apogee height: 887 km
right ascension of ascending node: 289.8914°
argument of perigee: 258.8508°
revolutions per day: 14.16028583
mean anomaly at epoch: 221.7427°
orbit number at epoch: 15927

The dashed part of the orbit path shows where the satellite is in the earth's shadow,  

DLR